Simultaneous Nadir Overpasses (SNOs) Predictions

Prediction of SNOs between METOP-A and TERRA Satellite Orbit:

Table of predicted SNOs for the next 14.0 days since TLE Epoch: 7/23/2016
Index Date (METOP-A) Time (METOP-A) Lat,Lon (METOP-A) SZA (METOP-A ) Date (TERRA) Time (TERRA) Lat,Lon (TERRA) SZA (TERRA ) Distance(km) Time Diff (sec)
1 07/25/2016 18:25:42 81.32, -48.95 64.63 07/25/2016 18:26:11 81.31, -48.99 64.63 1.12 29
2 07/25/2016 19:16:22 -81.33, 118.87 115.31 07/25/2016 19:15:37 -81.33, 119.03 115.31 2.68 45
3 07/28/2016 14:00:02 81.33, 17.94 65.33 07/28/2016 14:00:24 81.33, 17.78 65.32 2.82 22
4 07/28/2016 14:50:43 -81.33,-174.59 114.65 07/28/2016 14:49:51 -81.33,-174.57 114.67 0.50 52
5 07/31/2016 09:34:23 81.32, 84.03 65.97 07/31/2016 09:34:37 81.33, 84.10 65.98 1.12 14
6 07/31/2016 10:25:03 -81.33,-108.08 113.96 07/31/2016 10:24:04 -81.33,-108.24 114.01 2.78 59
7 08/03/2016 05:08:44 81.32, 150.49 66.70 08/03/2016 05:08:51 81.31, 150.34 66.68 2.70 7
8 08/03/2016 05:59:24 -81.33, -41.59 113.23 08/03/2016 05:58:17 -81.34, -41.61 113.26 0.66 67
9 08/05/2016 23:52:26 -81.32, 49.20 112.60 08/05/2016 23:53:38 -81.32, 49.28 112.56 1.24 72
10 08/06/2016 00:43:05 81.33,-143.08 67.46 08/06/2016 00:43:04 81.32,-143.11 67.45 0.71 1




NCC Satellite Simultaneous Nadir Overpasses (SNOs) Prediction Service
